Wetbulb
40.79 42.48 43.41 43.18 43.08 43.01 43.38 42.86 44.62 46.09 46.49 46.05 46.23 45.88 45.83 45.44 45.46 43.39 42.92 45.72 42.09 35.68 39.10 40.08 41.26 37.85 39.77 38.80 33.77 36.82 35.03 36.06 34.29 30.45 29.89 30.51 29.47 30.97 30.11 31.06 29.01 27.50 25.93 26.04 28.62 25.70 22.05 33.23 33.92 28.20 28.95 30.88 29.00 27.94
41.25 42.17 42.28 42.34 42.43 43.60 42.86 45.21 45.49 45.27 45.08 44.87 44.83 45.06 44.67 44.31 44.27 44.82 40.50 45.81 46.36 39.23 38.09 43.59 42.82 42.95 42.01 42.11 39.89 39.73 36.93 36.38 37.47 33.27 33.78 33.60 31.13 33.34 31.45 25.82 34.77 28.41 30.63 29.74 27.40 26.34 30.06 31.59 29.77 31.59 33.48 30.24 28.87 27.57
41.45 41.82 42.01 41.60 42.41 43.19 43.48 44.85 44.83 44.72 44.77 44.56 44.32 44.80 45.06 44.36 44.68 44.92 41.48 44.31 43.45 39.81 38.75 39.30 37.97 42.52 45.18 44.94 46.85 36.99 39.15 40.53 38.53 42.29 40.14 36.93 31.71 34.79 29.03 30.53 31.80 33.53 36.16 30.02 29.52 28.83 28.48 29.54 30.95 31.28 31.43 29.19 29.49 29.38
40.83 41.47 41.49 40.91 43.01 44.42 44.57 44.50 44.41 44.45 44.15 44.10 44.42 44.72 45.08 44.94 45.10 45.16 41.25 45.46 44.24 40.02 33.75 34.76 43.55 40.78 45.12 45.08 45.09 45.49 42.89 42.99 42.47 41.85 38.88 37.31 33.64 38.41 33.21 34.36 33.18 34.92 35.35 30.52 28.10 29.50 29.77 29.82 30.30 29.88 29.16 29.66 28.78 29.13
40.73 41.01 40.70 41.12 43.84 43.95 44.32 44.22 44.10 44.19 44.16 44.42 44.44 44.50 44.32 44.57 45.29 45.36 43.87 45.57 45.83 40.28 33.72 33.84 40.68 42.42 44.02 43.96 42.60 43.37 42.43 41.47 39.66 37.06 37.57 34.97 37.30 36.79 37.78 36.80 32.64 36.56 33.24 30.71 31.31 32.42 32.39 29.54 30.32 30.87 28.72 28.05 28.90 28.31
40.18 40.36 40.18 43.63 44.04 44.02 44.14 44.16 43.84 43.80 44.08 44.27 44.61 44.80 45.09 45.39 45.37 44.01 37.49 45.35 46.62 44.91 37.79 31.59 39.81 39.93 42.35 43.08 42.02 41.60 41.95 41.88 40.56 38.14 36.53 37.96 40.46 37.13 32.85 30.67 33.70 36.18 37.03 37.10 33.57 35.54 32.83 31.51 31.86 31.72 29.81 29.94 30.34 29.51
39.67 40.40 41.35 43.95 43.91 43.88 43.82 43.58 43.54 43.80 44.14 44.11 44.19 44.70 45.04 44.77 44.51 39.62 38.46 40.86 41.80 45.92 40.81 32.40 31.98 38.81 41.47 41.35 41.43 40.76 42.38 40.78 40.48 37.63 36.24 36.45 36.60 37.42 35.15 30.36 33.79 34.79 35.25 35.42 34.75 32.76 28.68 30.36 28.56 31.35 31.17 30.90 31.05 30.51
38.84 41.26 43.57 43.68 43.75 43.78 43.46 43.45 43.69 44.02 44.01 43.97 44.07 43.87 43.61 43.39 42.36 40.08 41.73 43.01 43.02 44.64 41.91 33.50 31.57 34.09 40.85 36.60 35.66 41.24 38.17 39.61 39.06 37.72 37.48 35.81 36.61 36.53 31.08 33.74 33.97 33.48 33.21 33.14 33.28 35.48 33.11 33.16 32.55 31.40 31.28 30.67 28.86 27.95
39.44 43.24 43.51 43.44 43.48 43.55 43.51 43.40 43.45 43.67 43.66 43.72 44.22 44.36 43.36 42.92 39.59 39.41 40.36 41.67 47.50 42.69 35.48 33.92 29.63 28.58 40.14 37.72 38.88 38.25 39.65 34.83 38.57 35.51 35.51 35.78 34.31 29.77 33.69 32.66 32.32 32.06 31.73 32.13 34.07 33.67 32.85 31.63 30.90 30.58 30.29 29.48 28.07 27.48
42.34 43.35 43.24 43.21 43.47 43.47 43.81 43.50 43.55 43.48 42.42 41.82 39.66 39.71 37.26 39.53 40.00 41.18 42.33 40.07 40.44 39.02 39.55 34.62 38.03 31.64 37.04 37.95 36.23 35.53 37.01 33.74 29.60 33.68 37.33 32.71 31.90 35.85 37.39 35.80 35.00 33.93 34.30 33.89 31.12 29.67 30.64 29.53 29.56 29.73 29.71 30.44 29.51 28.16
43.19 42.48 42.09 42.48 43.27 43.41 43.74 43.52 43.35 42.00 38.60 40.09 37.77 35.71 40.30 40.28 42.07 38.96 35.06 33.32 34.64 31.79 36.50 36.95 36.03 33.36 39.46 34.53 33.63 37.04 33.01 33.63 27.30 31.57 30.62 29.23 28.61 32.84 36.39 35.32 35.38 35.38 34.93 34.53 35.34 34.29 33.77 32.47 30.89 30.27 30.04 30.16 29.14 28.35
43.24 42.49 42.33 42.96 43.04 42.51 42.07 41.70 41.42 39.35 40.67 39.93 40.63 42.21 42.19 38.70 35.29 30.87 29.54 31.57 31.63 29.07 34.99 35.08 35.72 37.34 37.87 40.52 34.97 34.40 30.69 31.97 25.35 35.50 29.74 25.71 30.29 33.69 34.65 34.68 35.20 34.97 33.92 34.19 35.38 34.22 33.83 32.53 31.98 30.29 28.98 27.73 24.66 21.75
42.79 42.72 42.99 42.67 42.11 41.16 41.11 41.86 42.27 42.25 42.73 42.56 38.89 34.98 34.33 32.75 26.93 26.03 22.52 26.99 29.12 33.49 36.24 37.51 35.01 36.91 37.74 38.44 34.20 32.20 27.52 27.78 34.91 28.42 26.55 28.79 31.46 32.96 33.57 33.42 33.39 34.22 33.64 34.43 33.67 33.49 32.17 31.32 30.36 28.54 24.48 21.89 21.88 20.52
42.52 42.32 42.41 41.89 41.68 42.53 42.18 40.91 39.79 40.52 40.68 35.50 31.21 25.60 29.13 26.76 28.40 30.18 31.58 31.89 34.89 37.00 37.66 37.84 35.19 35.49 36.92 32.54 32.94 27.20 31.02 30.99 24.98 24.12 25.71 29.49 30.51 32.48 32.34 32.79 32.65 32.15 32.68 32.74 31.06 28.56 26.73 25.30 23.68 22.94 22.43 21.95 20.02 18.16
42.34 42.05 41.66 42.09 41.97 40.54 39.79 39.64 40.66 43.39 38.93 32.52 32.42 25.33 27.30 31.11 33.17 33.79 35.16 35.06 36.15 39.50 38.29 36.35 35.67 35.11 31.47 28.37 30.76 28.75 25.03 22.97 26.60 26.97 29.54 31.58 31.58 31.69 31.31 31.20 30.77 30.34 29.61 29.12 28.22 25.86 23.91 22.58 22.49 21.74 21.23 20.77 19.18 17.31
41.77 41.36 39.85 41.30 40.58 39.76 38.94 40.82 42.20 41.52 37.40 32.95 31.93 29.29 32.85 31.71 30.73 31.89 32.98 33.49 38.22 39.31 40.01 37.53 32.48 30.41 28.15 29.68 26.11 25.14 25.69 24.87 27.78 28.59 30.54 30.91 30.23 30.07 29.82 29.44 29.21 29.39 28.66 26.71 24.93 23.58 22.65 21.73 20.75 21.64 21.18 18.36 17.32 17.76
41.40 38.23 40.70 40.32 40.04 40.10 41.15 40.76 39.09 34.33 32.38 31.46 30.11 32.25 33.16 32.96 31.32 32.07 35.33 35.80 39.83 37.63 33.02 33.19 27.24 26.32 32.32 27.74 26.90 30.67 28.39 28.86 29.00 29.11 30.73 30.99 29.70 29.08 28.59 27.65 27.15 26.88 25.68 24.53 23.80 22.82 22.11 23.53 20.83 18.80 16.96 18.00 19.41 18.92
38.96 40.08 40.47 39.48 40.24 39.93 40.94 39.91 35.72 32.50 29.03 32.47 30.17 31.51 33.88 34.22 32.25 32.77 33.73 36.92 37.86 35.78 34.71 30.88 34.30 26.58 26.51 24.83 28.78 31.48 29.73 29.58 30.46 29.25 29.95 30.30 29.42 28.09 27.33 26.18 26.26 26.38 25.14 24.25 23.53 22.95 21.99 20.36 20.99 20.70 20.52 21.51 21.21 20.84
40.02 39.75 40.33 40.11 40.23 38.65 35.12 35.39 36.62 27.68 30.21 32.60 33.82 34.34 33.66 32.63 34.08 34.63 34.86 37.20 38.78 38.82 36.01 33.13 28.24 28.29 30.47 32.99 31.47 30.57 29.92 30.38 27.91 27.99 28.62 29.18 29.09 27.77 26.84 26.66 26.39 25.91 24.88 24.04 23.54 23.04 22.77 24.27 25.09 24.01 23.67 23.34 22.13 22.81
40.42 40.40 40.06 40.24 40.75 37.06 32.29 32.71 37.56 31.32 29.20 30.55 32.32 30.71 31.48 32.47 34.29 34.98 35.98 36.16 35.94 34.39 31.61 29.91 30.81 32.83 32.80 32.93 34.40 33.30 32.27 32.46 28.98 25.97 25.37 26.57 27.35 26.97 25.99 25.93 25.72 25.67 25.04 25.28 25.50 24.53 24.44 25.90 25.56 25.32 24.81 25.24 24.90 24.36
40.15 40.03 40.27 41.78 39.52 37.68 35.01 32.99 30.47 30.83 30.50 29.08 30.58 30.88 29.63 32.16 31.35 32.35 32.69 34.81 32.29 31.91 31.31 34.86 33.88 32.43 33.41 34.24 35.85 35.45 34.97 34.77 32.88 32.39 28.20 24.77 26.91 27.89 26.67 28.24 26.45 26.45 25.54 25.25 24.09 24.29 25.40 25.42 25.90 26.39 27.52 28.08 27.46 26.13
39.43 38.38 39.89 39.57 35.62 34.75 32.72 35.10 31.19 32.53 30.50 29.31 29.77 31.06 28.59 28.45 29.18 30.62 32.99 29.88 29.48 33.91 35.05 33.83 33.91 33.20 32.28 32.85 33.27 35.90 34.98 33.47 33.90 33.50 31.59 29.44 27.21 26.69 27.07 27.30 26.53 26.52 26.60 26.71 25.91 25.79 26.96 27.04 27.46 27.05 27.55 26.07 25.02 22.82
37.97 39.40 37.19 35.76 30.81 30.38 28.68 36.67 29.69 30.36 26.43 26.56 28.69 26.95 27.03 27.65 30.11 33.09 27.66 29.67 32.63 35.16 35.00 34.23 33.58 34.62 32.26 32.51 32.67 33.04 33.22 33.13 32.68 32.30 30.96 30.60 30.19 30.25 29.09 28.21 29.08 28.11 26.94 27.26 28.45 28.06 28.35 27.48 27.12 26.94 25.38 25.00 23.27 21.15
38.78 34.05 30.26 29.34 30.01 25.45 31.14 28.11 30.69 28.05 28.11 27.45 26.92 24.88 25.89 27.11 29.48 27.60 26.44 31.52 31.97 33.46 32.30 31.04 32.78 32.01 32.87 31.85 31.91 31.02 32.08 34.07 31.18 31.12 32.10 29.66 28.16 27.98 28.84 28.26 29.26 29.63 29.44 29.06 28.54 29.06 27.51 27.57 26.66 25.07 24.58 23.38 21.85 20.55
29.49 27.58 29.78 24.90 29.86 27.17 25.45 26.04 26.74 27.24 24.52 25.70 24.54 26.05 26.45 28.24 25.38 25.93 25.50 30.91 31.80 31.18 31.07 30.10 30.60 31.36 31.82 32.62 31.19 30.17 30.47 33.24 30.60 28.63 31.73 30.79 29.32 28.67 27.75 28.17 28.91 29.38 30.91 29.58 28.25 27.42 27.01 27.17 25.84 24.80 24.16 23.82 21.85 20.86
24.03 27.77 27.04 26.74 26.86 25.98 26.28 23.38 24.31 24.63 26.39 24.76 25.46 27.84 28.52 26.03 23.46 23.89 29.03 31.54 31.32 30.58 30.96 30.35 30.13 29.48 29.98 31.18 30.58 30.05 30.37 32.74 32.69 29.53 29.96 30.69 29.61 29.04 27.38 26.46 26.09 27.47 30.89 30.79 28.99 26.67 25.96 25.26 25.12 23.37 23.26 22.08 19.47 19.45
22.67 24.75 29.54 33.05 30.84 29.48 27.72 29.30 29.65 27.49 24.48 24.19 26.90 25.12 24.92 22.16 23.66 29.19 32.08 32.57 31.28 30.84 31.36 32.32 32.08 31.35 31.06 30.25 30.58 30.86 31.30 31.17 31.42 29.97 30.78 30.52 30.38 31.09 30.48 27.89 26.29 28.14 30.53 30.06 29.37 27.64 25.14 25.00 23.84 23.38 21.18 20.00 19.98 18.86
28.45 28.96 24.54 27.73 27.81 29.36 26.30 26.78 25.83 25.05 26.90 30.31 28.99 23.95 23.17 25.42 27.81 31.38 31.60 31.03 30.47 30.25 29.99 31.18 31.62 31.22 31.15 29.82 29.56 28.30 27.61 28.90 28.93 28.65 28.53 28.32 29.26 29.82 30.86 31.99 30.80 29.31 30.81 30.45 29.75 28.15 27.06 25.22 23.66 21.07 19.47 18.54 17.56 18.09
27.32 30.27 29.36 24.94 26.73 27.54 27.65 27.32 27.89 30.50 32.43 31.60 28.02 27.30 28.93 32.50 32.63 32.63 31.87 31.50 32.35 30.75 28.68 27.85 28.44 30.10 29.55 29.26 29.30 29.14 27.48 27.30 25.35 22.44 21.94 21.65 22.75 24.50 28.41 29.82 29.57 29.57 29.82 29.14 28.25 27.74 26.14 24.66 22.71 20.46 17.74 16.00 14.70 13.64
27.35 30.44 26.63 26.28 24.53 24.89 29.36 29.60 30.49 29.94 30.84 30.99 31.54 31.52 31.23 31.86 30.66 32.42 31.60 30.33 29.54 29.28 31.17 31.27 29.13 28.48 26.69 26.14 25.48 26.00 28.52 29.48 29.62 27.55 25.30 23.11 24.21 25.48 26.57 26.63 26.44 26.37 26.26 24.29 21.18 20.10 19.60 17.75 16.64 15.01 13.75 12.12 10.67 8.64
30.09 28.40 26.65 27.31 26.16 29.50 28.36 28.29 28.76 29.09 29.08 29.08 29.14 29.17 30.41 30.43 31.38 30.12 29.98 30.65 31.04 30.74 29.83 28.02 27.84 29.33 28.28 27.95 26.35 24.67 24.52 28.65 28.25 29.84 30.15 27.51 25.95 26.16 25.61 25.23 25.09 24.33 21.24 19.47 18.20 16.55 14.76 14.11 13.07 11.14 10.14 9.15 7.20 5.79
26.57 25.52 26.09 23.75 26.45 27.25 27.44 26.95 27.57 27.03 28.10 26.84 28.43 28.01 27.82 27.29 26.95 26.23 23.79 26.26 26.66 26.63 27.45 28.69 27.79 27.41 29.66 31.26 31.89 30.80 29.58 28.43 28.16 28.38 27.33 27.09 26.41 26.02 25.59 24.77 22.60 20.98 19.28 18.42 17.34 15.10 14.88 13.54 12.65 11.70 8.74 6.47 6.61 4.48
27.11 27.26 27.23 26.47 25.32 24.21 25.71 25.32 25.03 25.14 25.61 25.15 26.48 26.73 26.95 25.84 25.62 23.14 23.50 24.13 23.19 23.96 25.66 28.58 29.34 30.81 29.69 29.39 29.14 29.47 29.11 29.03 27.70 27.25 27.17 26.27 25.33 24.37 23.40 22.94 21.92 20.49 18.75 17.39 16.56 15.72 13.74 12.13 9.66 8.34 7.19 4.55 2.61 1.32
MSLP
1000.36 999.84 999.22 999.42 999.52 999.55 999.48 999.49 999.22 999.14 999.92 1001.25 1002.34 1003.54 1004.55 1005.49 1006.34 1007.08 1007.32 1007.06 1007.04 1006.36 1004.92 1005.18 1004.44 1004.71 1004.03 1003.98 1004.22 1005.20 1005.81 1006.10 1006.42 1006.31 1005.89 1005.58 1005.70 1005.51 1006.35 1007.42 1007.30 1007.85 1008.45 1008.87 1009.30 1010.21 1011.80 1012.75 1012.72 1013.77 1015.26 1015.98 1016.95 1017.68
1000.06 999.65 999.39 999.20 999.02 998.70 998.61 998.39 998.85 999.79 1000.69 1001.55 1002.85 1003.86 1004.68 1005.54 1006.37 1006.91 1007.07 1006.73 1006.69 1006.70 1005.75 1005.32 1004.98 1004.90 1004.93 1004.79 1004.44 1004.63 1004.81 1005.33 1005.71 1005.59 1005.17 1005.33 1005.46 1005.83 1006.31 1007.03 1007.88 1008.72 1009.46 1009.75 1011.36 1012.38 1013.60 1014.30 1014.81 1015.55 1015.93 1016.74 1017.78 1018.44
999.87 999.51 999.13 998.88 998.54 998.28 998.55 999.14 999.84 1000.63 1001.45 1002.35 1003.26 1004.05 1004.79 1005.53 1006.13 1006.56 1007.13 1006.50 1006.50 1006.06 1005.86 1005.62 1005.67 1005.45 1004.98 1004.85 1004.61 1004.68 1004.74 1005.19 1005.55 1005.69 1005.31 1005.24 1005.35 1005.66 1006.15 1006.90 1007.60 1008.71 1009.42 1010.46 1011.80 1013.43 1014.38 1015.22 1015.90 1016.38 1016.94 1017.71 1018.41 1019.07
999.75 999.47 999.15 998.92 998.39 998.54 999.13 999.85 1000.53 1001.26 1002.02 1002.82 1003.54 1004.17 1004.79 1005.45 1006.10 1006.65 1007.20 1006.00 1006.08 1006.32 1005.97 1006.24 1005.77 1005.48 1005.11 1004.92 1004.93 1005.10 1005.05 1005.51 1005.56 1005.61 1005.38 1005.35 1005.47 1005.97 1006.63 1006.94 1007.58 1008.11 1009.20 1010.81 1012.53 1013.87 1014.95 1015.72 1016.51 1017.23 1017.83 1018.46 1018.96 1019.55
999.75 999.49 999.28 999.03 998.75 999.34 999.97 1000.58 1001.23 1001.86 1002.49 1003.05 1003.66 1004.28 1004.97 1005.79 1006.16 1006.74 1006.93 1006.40 1006.40 1006.59 1005.69 1006.18 1006.02 1005.84 1005.52 1005.33 1005.39 1005.50 1005.57 1005.57 1005.44 1005.39 1005.37 1005.50 1005.95 1006.48 1006.77 1007.33 1008.35 1008.95 1009.95 1010.73 1011.35 1012.65 1013.97 1015.61 1016.76 1017.55 1018.09 1018.72 1019.21 1019.64
999.74 999.52 999.30 999.05 999.54 1000.15 1000.74 1001.32 1001.84 1002.37 1002.85 1003.28 1003.92 1004.60 1005.13 1005.57 1006.13 1006.66 1006.77 1006.13 1005.89 1006.30 1005.45 1005.86 1006.61 1006.25 1006.02 1005.89 1005.78 1005.73 1005.56 1005.29 1005.00 1005.14 1005.38 1005.82 1006.48 1007.00 1007.36 1008.27 1009.68 1010.06 1010.87 1011.31 1012.43 1013.34 1014.66 1015.96 1016.86 1017.54 1018.13 1018.58 1019.04 1019.64
999.86 999.59 999.52 999.58 1000.22 1000.84 1001.39 1001.90 1002.41 1002.97 1003.51 1004.03 1004.41 1004.78 1005.26 1005.82 1006.44 1006.53 1006.53 1006.22 1006.03 1005.56 1005.44 1006.09 1006.51 1006.79 1006.48 1006.19 1006.06 1006.05 1005.83 1005.71 1005.28 1005.52 1005.63 1005.94 1006.65 1007.26 1007.68 1008.74 1010.18 1011.08 1011.94 1012.52 1013.40 1014.36 1015.69 1016.26 1016.87 1017.62 1018.25 1018.74 1019.32 1019.91
999.85 999.67 999.81 1000.29 1000.92 1001.51 1002.02 1002.48 1002.98 1003.53 1004.10 1004.49 1004.78 1005.07 1005.44 1005.99 1006.59 1006.48 1006.38 1006.17 1005.98 1005.52 1005.20 1005.39 1006.43 1006.87 1006.90 1006.23 1006.32 1006.30 1005.97 1005.89 1006.09 1006.03 1006.38 1006.14 1006.97 1007.25 1008.24 1009.97 1010.86 1011.94 1012.80 1013.38 1014.02 1014.14 1015.14 1015.88 1016.74 1017.55 1018.35 1018.85 1019.44 1020.14
999.79 999.80 1000.33 1000.98 1001.54 1002.16 1002.65 1003.09 1003.61 1004.10 1004.52 1004.73 1004.93 1005.35 1005.94 1005.98 1005.66 1006.21 1006.41 1006.19 1005.78 1005.78 1005.03 1005.53 1005.85 1006.33 1006.69 1006.48 1006.49 1006.47 1006.16 1006.42 1006.78 1006.38 1006.38 1007.00 1007.29 1007.95 1008.59 1010.10 1011.37 1012.50 1013.03 1013.65 1014.12 1014.66 1015.47 1016.05 1016.77 1017.69 1018.34 1018.96 1019.60 1020.44
999.75 1000.30 1001.01 1001.65 1002.28 1002.79 1003.24 1003.69 1004.13 1004.56 1004.87 1005.20 1005.52 1005.20 1005.69 1006.05 1006.31 1006.28 1006.38 1006.05 1005.61 1005.30 1004.96 1005.12 1005.41 1006.13 1006.60 1006.45 1006.69 1006.84 1006.73 1006.43 1006.82 1006.98 1007.30 1007.60 1008.00 1008.62 1009.09 1010.33 1011.50 1012.73 1013.31 1013.84 1014.22 1014.96 1015.65 1016.38 1017.11 1017.84 1018.48 1019.09 1019.92 1020.91
1000.34 1001.01 1001.68 1002.33 1002.92 1003.41 1003.87 1004.27 1004.70 1005.07 1005.23 1005.02 1005.18 1005.77 1006.05 1006.29 1006.07 1005.83 1006.11 1005.95 1005.75 1005.48 1005.10 1005.22 1005.78 1006.00 1006.46 1006.50 1006.60 1006.68 1006.87 1007.05 1006.90 1007.38 1007.62 1008.18 1008.45 1009.42 1010.18 1011.13 1012.09 1012.88 1013.69 1014.22 1014.53 1015.24 1015.94 1016.65 1017.41 1018.19 1018.96 1019.73 1020.75 1021.71
1001.13 1001.87 1002.55 1003.12 1003.64 1004.14 1004.58 1004.95 1005.22 1005.43 1004.99 1005.01 1005.01 1005.63 1005.89 1005.93 1006.18 1006.32 1006.22 1006.15 1005.56 1005.30 1005.54 1005.40 1005.73 1006.21 1006.46 1006.38 1007.00 1007.47 1007.31 1007.73 1007.71 1008.06 1008.30 1008.62 1009.98 1010.63 1011.45 1012.19 1012.93 1013.65 1014.22 1014.66 1015.11 1015.82 1016.47 1017.27 1018.08 1018.96 1019.99 1021.00 1022.26 1023.31
1001.86 1002.66 1003.30 1003.90 1004.40 1004.83 1005.20 1005.40 1005.37 1005.26 1005.32 1005.26 1005.13 1005.60 1005.86 1006.54 1006.57 1006.38 1006.45 1006.06 1005.88 1005.91 1005.74 1005.77 1006.28 1006.89 1007.07 1007.43 1008.01 1008.14 1008.43 1008.56 1008.66 1008.96 1008.92 1009.93 1011.04 1011.91 1012.70 1013.30 1014.02 1014.59 1015.05 1015.45 1016.00 1016.71 1017.44 1018.28 1019.21 1020.19 1021.47 1022.62 1023.51 1024.50
1002.80 1003.47 1004.12 1004.58 1005.08 1005.41 1005.69 1005.87 1005.84 1005.86 1005.64 1005.04 1005.59 1006.37 1006.46 1006.87 1006.79 1006.79 1006.56 1006.49 1006.76 1006.45 1006.21 1006.63 1007.27 1007.45 1007.73 1008.42 1008.67 1008.73 1009.30 1009.37 1009.31 1009.14 1009.65 1011.03 1012.16 1012.97 1013.72 1014.33 1014.89 1015.58 1016.17 1016.71 1017.38 1018.17 1018.95 1019.79 1020.80 1021.77 1022.70 1023.50 1024.40 1025.29
1003.77 1004.50 1005.12 1005.49 1005.73 1006.00 1006.20 1006.16 1005.96 1005.55 1005.54 1005.83 1006.07 1006.77 1007.20 1007.72 1007.79 1007.99 1007.87 1007.58 1007.48 1006.93 1006.93 1007.33 1007.64 1007.97 1008.55 1009.13 1009.25 1009.43 1009.78 1009.70 1009.63 1010.14 1011.15 1012.07 1013.12 1013.90 1014.56 1015.30 1015.92 1016.57 1017.24 1018.00 1018.76 1019.45 1020.23 1021.01 1021.77 1022.76 1023.73 1024.37 1024.99 1025.76
1004.80 1005.26 1005.87 1006.10 1006.29 1006.37 1006.36 1006.16 1005.97 1005.92 1006.20 1006.93 1007.45 1007.80 1008.08 1008.19 1008.58 1008.61 1008.41 1008.19 1007.86 1007.36 1007.30 1007.45 1007.80 1008.15 1008.55 1008.77 1009.27 1009.36 1009.50 1009.96 1011.04 1011.93 1012.62 1013.30 1014.09 1014.88 1015.60 1016.26 1016.95 1017.58 1018.22 1018.98 1019.75 1020.43 1021.16 1021.86 1022.52 1023.31 1024.20 1024.94 1025.49 1025.94
1005.02 1005.65 1006.45 1006.49 1006.56 1006.55 1006.33 1006.09 1006.25 1006.71 1007.26 1007.55 1008.44 1008.64 1008.40 1008.70 1009.11 1009.21 1009.13 1008.78 1008.16 1007.82 1007.65 1007.47 1007.93 1008.16 1008.61 1008.58 1008.91 1009.44 1010.49 1011.52 1012.27 1013.03 1013.55 1014.16 1014.88 1015.69 1016.39 1017.16 1017.83 1018.38 1019.00 1019.69 1020.35 1021.07 1021.72 1022.30 1023.12 1023.79 1024.35 1025.09 1025.47 1026.02
1005.76 1006.58 1006.76 1006.79 1006.71 1006.50 1006.22 1006.22 1006.83 1007.39 1008.05 1008.57 1008.72 1009.30 1009.37 1009.65 1009.94 1010.04 1009.90 1009.34 1008.43 1007.77 1007.82 1008.28 1008.54 1008.86 1008.98 1009.16 1009.60 1010.60 1011.69 1012.62 1013.26 1013.78 1014.42 1015.08 1015.76 1016.58 1017.22 1017.73 1018.32 1018.81 1019.41 1020.06 1020.67 1021.29 1021.92 1022.51 1022.73 1023.15 1023.86 1024.42 1025.00 1025.54
1006.49 1006.93 1007.08 1006.98 1006.80 1006.53 1006.63 1007.20 1007.39 1008.16 1008.93 1009.24 1009.54 1009.73 1010.16 1010.54 1010.58 1010.48 1010.18 1009.58 1008.79 1008.46 1008.60 1008.88 1009.42 1009.41 1009.81 1010.31 1010.82 1011.47 1012.18 1012.76 1013.71 1014.55 1015.28 1015.92 1016.48 1017.06 1017.64 1018.19 1018.63 1019.11 1019.66 1020.19 1020.64 1021.13 1021.62 1021.69 1021.90 1022.70 1023.33 1023.89 1024.37 1025.03
1007.15 1007.23 1007.19 1007.02 1006.89 1006.40 1007.09 1007.88 1008.14 1008.55 1009.17 1009.97 1010.19 1010.42 1010.57 1010.66 1010.78 1010.82 1010.30 1009.77 1009.37 1009.26 1009.13 1009.34 1010.08 1010.74 1011.17 1011.53 1011.44 1011.82 1012.35 1012.98 1013.92 1014.74 1015.68 1016.41 1016.98 1017.48 1017.96 1018.32 1018.65 1019.21 1019.66 1020.04 1020.38 1020.79 1021.09 1021.27 1021.94 1022.54 1023.15 1023.50 1024.02 1024.61
1007.26 1007.52 1007.33 1006.90 1006.74 1007.11 1007.62 1008.28 1008.98 1009.37 1009.86 1010.28 1010.73 1010.77 1010.92 1010.95 1010.90 1010.74 1010.54 1010.40 1010.19 1009.57 1009.47 1010.07 1011.00 1011.82 1012.21 1012.29 1012.04 1012.29 1012.50 1012.77 1013.23 1013.75 1014.87 1016.07 1016.91 1017.30 1017.84 1018.07 1018.68 1019.07 1019.37 1019.72 1020.11 1020.50 1020.79 1021.26 1021.84 1022.51 1023.08 1023.56 1024.11 1024.82
1007.89 1007.90 1007.63 1007.58 1007.70 1008.20 1008.80 1009.15 1009.35 1009.70 1010.03 1010.43 1010.66 1010.69 1010.99 1011.10 1011.15 1011.16 1011.06 1010.87 1010.68 1010.52 1010.68 1011.02 1011.44 1011.99 1012.44 1012.57 1012.55 1012.39 1012.89 1013.19 1013.35 1013.64 1014.49 1015.56 1016.34 1016.96 1017.40 1017.92 1018.37 1018.68 1019.08 1019.43 1019.88 1020.34 1020.73 1021.24 1021.95 1022.69 1023.32 1024.02 1024.58 1025.38
1008.25 1007.93 1008.10 1008.23 1008.86 1009.26 1009.89 1009.40 1009.56 1009.78 1010.06 1010.59 1010.84 1010.77 1011.06 1011.19 1011.23 1011.25 1011.06 1010.99 1011.02 1011.30 1011.46 1011.53 1012.05 1012.26 1012.60 1012.88 1013.03 1013.17 1013.31 1013.34 1013.53 1014.08 1014.88 1015.42 1016.02 1016.68 1017.22 1017.75 1018.04 1018.42 1018.84 1019.30 1019.74 1020.35 1020.88 1021.51 1022.23 1022.95 1023.67 1024.36 1025.12 1025.88
1008.68 1009.03 1009.46 1009.46 1009.54 1010.17 1010.26 1009.87 1009.76 1010.13 1010.37 1010.36 1010.42 1010.56 1011.09 1011.31 1011.59 1011.22 1010.77 1010.49 1011.51 1011.79 1012.05 1012.53 1012.48 1012.53 1012.80 1013.07 1013.12 1013.43 1013.57 1013.48 1014.09 1014.70 1014.97 1015.49 1016.13 1016.72 1017.18 1017.62 1018.00 1018.33 1018.69 1019.18 1019.83 1020.46 1021.13 1021.75 1022.54 1023.24 1023.94 1024.59 1025.27 1025.88
1009.42 1010.64 1010.45 1010.34 1010.23 1010.15 1010.04 1009.94 1009.97 1009.81 1010.13 1010.53 1010.60 1010.62 1011.15 1011.48 1011.18 1010.84 1010.79 1011.04 1011.56 1012.19 1012.54 1012.92 1012.95 1012.92 1012.91 1013.00 1013.37 1013.80 1014.14 1013.80 1014.26 1014.84 1015.18 1015.52 1016.09 1016.76 1017.26 1017.67 1018.03 1018.35 1018.62 1019.19 1019.83 1020.55 1021.25 1022.02 1022.73 1023.42 1023.98 1024.49 1025.09 1025.75
1009.89 1010.68 1010.54 1010.26 1010.29 1010.01 1009.89 1009.92 1009.99 1010.08 1010.08 1010.36 1010.62 1011.02 1011.24 1011.23 1011.06 1010.75 1010.78 1011.60 1012.00 1012.55 1012.88 1013.11 1013.21 1013.29 1013.38 1013.41 1013.66 1013.92 1014.24 1014.26 1014.42 1014.93 1015.27 1015.69 1016.05 1016.47 1016.94 1017.41 1017.92 1018.47 1018.79 1019.11 1019.81 1020.58 1021.38 1022.15 1022.76 1023.45 1024.05 1024.63 1025.23 1025.97
1010.26 1010.51 1010.42 1010.55 1010.19 1010.16 1010.34 1010.26 1010.14 1010.15 1010.18 1010.17 1010.42 1011.04 1011.14 1010.87 1010.64 1010.97 1011.64 1012.19 1012.53 1013.18 1013.32 1013.53 1013.55 1013.59 1013.60 1013.99 1014.27 1014.49 1014.76 1015.03 1014.88 1015.26 1015.67 1016.07 1016.36 1016.61 1016.91 1017.30 1017.81 1018.36 1018.85 1019.36 1019.97 1020.66 1021.50 1022.18 1022.89 1023.60 1024.39 1025.17 1025.77 1026.35
1010.39 1010.50 1010.57 1010.82 1010.66 1010.64 1010.52 1010.41 1010.44 1010.26 1010.07 1009.90 1010.44 1010.79 1010.78 1010.66 1011.02 1011.69 1012.36 1013.04 1013.40 1013.70 1013.87 1013.98 1014.13 1014.23 1014.31 1014.64 1015.03 1015.45 1015.82 1016.03 1016.17 1016.41 1016.76 1017.11 1017.33 1017.46 1017.49 1017.60 1018.09 1018.63 1019.14 1019.68 1020.23 1020.90 1021.62 1022.38 1023.17 1024.02 1024.84 1025.61 1026.34 1026.89
1010.68 1010.79 1010.83 1010.91 1010.95 1010.93 1010.81 1010.59 1010.49 1010.32 1010.39 1010.36 1010.73 1010.81 1010.90 1011.27 1012.00 1012.36 1012.94 1013.34 1013.65 1013.80 1014.07 1014.34 1014.67 1014.87 1015.08 1015.33 1015.61 1015.84 1016.14 1016.21 1016.34 1016.61 1016.83 1017.29 1017.82 1018.38 1018.38 1018.49 1018.86 1019.27 1019.72 1020.20 1020.79 1021.38 1022.06 1022.82 1023.63 1024.46 1025.43 1026.33 1027.22 1027.96
1010.73 1011.11 1011.01 1011.00 1011.12 1010.95 1011.21 1011.65 1011.55 1011.85 1011.58 1011.69 1011.63 1011.38 1011.48 1012.08 1012.89 1013.22 1013.37 1013.70 1013.83 1013.88 1013.94 1014.18 1014.68 1014.92 1015.15 1015.42 1015.73 1016.07 1016.25 1016.30 1016.36 1016.41 1016.44 1016.97 1017.67 1018.59 1018.89 1019.21 1019.63 1020.11 1020.57 1021.14 1021.89 1022.66 1023.31 1023.99 1024.82 1025.67 1026.51 1027.36 1028.12 1028.83
1010.93 1011.27 1011.10 1011.01 1011.09 1011.55 1012.13 1012.51 1012.53 1012.49 1012.35 1012.21 1012.32 1012.27 1012.12 1012.63 1013.09 1013.65 1013.88 1014.02 1014.04 1014.14 1014.28 1014.44 1014.70 1014.80 1014.97 1015.15 1015.48 1015.83 1016.13 1016.45 1016.66 1016.57 1016.55 1017.10 1017.93 1018.63 1019.24 1019.77 1020.29 1020.81 1021.50 1022.15 1022.78 1023.42 1024.16 1024.85 1025.56 1026.37 1027.13 1027.83 1028.61 1029.29
1011.37 1011.22 1010.99 1011.04 1011.40 1012.19 1012.57 1012.51 1012.32 1012.29 1012.16 1012.34 1012.14 1012.52 1012.75 1013.06 1013.25 1014.18 1015.09 1014.90 1014.71 1014.63 1014.61 1014.57 1014.63 1014.80 1015.03 1015.16 1015.30 1015.67 1015.69 1016.35 1016.77 1017.03 1017.33 1017.77 1018.35 1018.99 1019.59 1020.18 1020.83 1021.46 1022.11 1022.68 1023.30 1024.03 1024.51 1025.21 1025.94 1026.64 1027.53 1028.36 1029.01 1029.73
1011.29 1011.36 1011.39 1011.50 1011.70 1012.02 1012.37 1012.51 1012.24 1012.05 1012.20 1012.15 1012.21 1012.58 1012.92 1013.24 1013.57 1014.82 1015.73 1015.80 1015.73 1015.51 1015.22 1014.92 1014.93 1014.86 1015.21 1015.49 1015.71 1015.97 1016.26 1016.67 1017.12 1017.43 1017.77 1018.25 1018.82 1019.43 1020.05 1020.64 1021.25 1021.86 1022.43 1023.03 1023.68 1024.25 1024.97 1025.70 1026.56 1027.36 1028.12 1028.91 1029.68 1030.39
Wind_Speed
17 16 13 10 9 10 12 18 22 17 22 24 25 23 22 19 19 8 2 5 3 2 8 9 4 3 10 4 8 12 6 4 5 6 5 3 2 2 5 2 9 7 6 6 7 8 5 8 3 3 5 7 9 6
14 12 10 8 12 15 15 15 22 23 24 22 21 20 21 19 17 13 2 4 4 3 3 8 10 11 7 4 7 10 3 12 5 6 4 1 2 1 6 5 3 2 2 3 5 4 5 8 10 5 5 9 8 8
12 12 8 9 13 14 16 23 23 23 22 22 20 18 18 20 17 10 1 5 3 3 4 3 5 8 7 5 5 4 2 4 2 3 2 0 2 5 5 3 6 4 6 4 6 6 6 7 8 8 9 10 9 10
9 11 3 8 12 18 21 20 20 19 18 17 16 14 15 15 17 11 4 3 2 1 3 5 4 4 4 4 5 6 8 3 4 4 1 1 1 4 3 5 3 2 7 9 5 8 9 6 8 10 11 10 11 11
7 7 6 11 20 17 19 18 17 16 15 14 15 13 15 15 18 8 5 4 2 3 3 6 9 7 6 7 8 7 7 6 4 3 1 2 3 3 2 4 5 3 3 4 1 15 2 12 10 12 12 11 11 12
4 6 10 11 19 18 18 17 16 14 12 12 16 18 18 15 13 3 2 5 3 7 3 4 3 5 6 7 7 5 1 1 1 2 2 4 2 2 3 3 2 7 6 4 4 11 12 13 11 11 12 11 12 12
7 9 7 20 19 18 17 16 15 17 17 13 13 14 13 11 4 1 1 2 5 4 2 5 5 2 2 2 2 4 1 1 1 1 2 3 3 3 2 3 8 9 9 12 15 18 11 14 8 12 12 12 13 12
5 7 18 20 18 17 16 15 18 17 14 11 12 12 10 10 11 4 2 2 5 1 2 2 4 5 5 3 3 3 2 2 3 3 1 1 3 2 3 6 12 11 10 10 13 0 13 12 15 14 13 12 12 11
7 17 21 19 19 17 16 18 18 18 15 13 14 15 6 4 3 3 2 8 3 2 1 4 6 4 3 2 2 1 2 1 0 1 1 1 3 2 7 12 13 12 9 10 6 13 15 14 14 13 13 12 11 10
14 22 21 19 19 17 16 16 18 15 12 8 4 3 3 3 2 2 2 2 1 1 2 3 5 4 4 2 1 3 2 2 3 2 3 1 2 4 10 12 12 11 11 11 13 13 12 13 12 12 11 10 10 10
24 21 21 19 18 17 16 16 14 10 1 3 3 2 4 2 3 0 2 2 2 2 3 4 6 6 5 3 3 2 2 0 3 3 2 4 3 6 8 12 9 8 10 9 10 11 10 11 10 10 9 9 10 10
26 23 20 19 19 18 15 12 8 2 2 4 6 6 2 1 1 3 3 1 4 4 3 6 8 6 2 1 3 1 1 1 1 2 2 2 4 10 9 9 10 10 7 6 10 12 11 10 9 10 10 10 12 12
25 24 22 20 18 15 10 6 4 9 7 4 2 3 2 1 3 4 5 3 4 3 2 6 5 3 3 4 3 2 1 1 2 2 2 3 8 8 9 10 12 8 8 6 10 9 12 12 11 11 12 10 11 9
23 22 19 15 14 13 12 7 3 3 5 2 3 4 2 4 1 4 6 5 2 3 5 7 4 3 2 4 1 2 2 2 3 3 3 6 7 7 9 9 10 10 9 11 12 13 13 13 12 12 10 9 10 9
23 22 17 15 14 11 7 2 5 3 3 3 3 3 3 2 4 3 3 4 2 4 6 5 3 3 3 3 1 2 3 4 3 3 3 6 9 7 9 10 10 10 10 10 10 10 11 11 11 11 9 8 9 8
21 18 12 13 10 6 2 3 0 2 3 3 5 2 3 6 4 4 4 3 2 2 4 3 2 2 2 4 3 3 3 2 4 3 3 7 9 8 9 9 8 8 9 9 9 10 10 10 10 11 10 8 7 7
9 5 9 9 6 3 3 0 3 4 3 3 3 2 2 6 5 3 2 1 2 1 0 2 2 1 1 3 4 1 3 3 3 3 3 6 9 9 9 9 8 9 10 10 10 10 10 10 11 11 11 9 10 8
13 9 8 4 4 2 3 3 3 3 5 4 4 4 5 4 3 3 3 4 3 1 2 3 3 2 2 2 3 3 4 3 4 4 5 7 10 9 8 9 8 9 10 10 10 10 11 10 11 9 11 11 10 9
11 8 6 5 5 2 3 3 3 4 4 3 3 4 4 3 3 2 1 3 3 4 1 3 1 1 2 4 4 4 5 4 6 5 6 7 8 8 9 8 8 9 9 11 12 8 9 10 8 8 8 8 6 6
13 11 7 4 3 1 4 4 3 3 3 3 3 3 3 2 2 0 1 1 3 2 2 1 3 3 2 3 3 4 5 7 8 7 6 5 5 8 9 8 7 9 9 10 8 8 7 6 7 7 6 6 7 6
6 5 6 5 3 7 4 3 3 3 3 4 2 2 2 2 2 2 2 3 2 2 2 4 4 4 4 3 3 4 5 5 5 5 8 7 7 7 7 6 9 7 7 7 7 7 6 6 7 7 5 5 6 7
2 3 2 5 5 4 4 5 3 2 2 4 2 1 3 2 2 1 1 1 1 1 3 3 3 4 4 4 2 4 4 6 5 6 9 10 8 7 7 7 7 7 7 7 7 7 6 7 7 7 6 7 7 7
3 1 3 4 4 4 3 2 3 1 3 3 2 3 2 2 2 2 1 2 1 2 3 2 4 5 6 5 5 6 5 5 5 5 7 6 6 6 6 7 6 7 7 7 7 6 6 10 9 8 8 7 8 6
1 4 4 4 5 3 1 2 2 3 2 2 2 2 3 1 0 1 3 2 3 3 2 2 3 4 4 5 5 5 3 4 7 4 4 6 6 5 6 5 5 5 6 6 7 6 8 8 10 8 8 8 8 7
2 4 2 4 1 2 2 3 2 2 3 2 2 2 3 1 1 1 2 3 2 2 1 1 2 2 1 2 5 5 3 3 5 6 2 5 6 6 6 5 5 5 5 8 8 9 8 8 8 8 8 8 8 8
3 3 3 2 0 0 2 3 3 2 3 2 2 3 1 1 2 2 2 2 2 1 2 2 2 2 1 2 4 4 4 1 5 5 4 5 6 6 7 7 7 6 6 7 9 10 10 9 9 10 8 9 7 9
2 2 1 1 2 2 1 1 2 2 2 2 3 2 2 3 3 3 3 3 3 2 2 3 3 2 3 5 5 5 5 5 3 5 5 5 3 3 5 6 7 6 6 8 9 10 10 9 10 9 9 7 6 6
1 2 1 2 2 2 2 2 4 4 3 1 4 3 2 2 3 2 3 3 4 4 3 3 4 4 4 5 6 5 5 5 8 8 7 7 6 5 5 3 6 10 7 8 9 9 9 9 9 10 10 8 6 6
2 1 2 3 2 2 3 3 3 1 3 2 1 2 1 3 2 2 3 4 3 4 4 4 4 4 5 4 4 4 5 5 7 8 8 6 5 4 3 7 7 7 7 8 10 10 12 10 10 10 11 8 8 7
3 4 3 3 3 3 2 4 3 2 3 3 2 1 2 2 2 1 3 3 3 3 2 3 5 5 5 5 5 5 3 3 3 4 5 7 6 6 5 7 7 8 8 10 11 13 17 14 14 10 9 8 7 6
4 4 3 4 3 3 3 2 0 1 1 0 1 2 2 2 2 2 0 2 0 1 3 4 4 4 5 5 6 6 5 3 3 2 6 9 9 8 7 8 7 8 9 10 9 10 10 9 9 10 10 10 9 8
4 6 4 4 3 3 1 1 1 2 2 2 2 2 1 2 3 3 3 3 1 1 3 3 4 4 3 2 2 3 3 6 6 6 11 8 9 9 9 8 9 9 10 10 10 10 11 11 9 9 9 11 9 9
3 3 0 0 2 3 2 3 3 2 2 3 1 2 1 3 2 3 2 3 3 5 6 3 4 4 6 4 5 5 7 6 8 8 10 13 13 11 9 8 8 9 11 10 10 10 11 13 11 11 10 10 9 9
Wind_Direction
305 318 294 241 270 274 255 262 253 203 171 173 159 162 166 169 170 170 233 258 285 310 52 85 78 118 182 137 149 153 149 177 172 205 218 178 233 172 102 320 173 190 196 206 243 222 186 10 227 288 87 95 93 77
308 315 329 295 286 271 229 164 129 129 131 131 148 156 157 156 172 186 204 252 206 272 65 70 54 33 49 2 208 158 178 171 169 214 224 137 176 103 141 167 141 163 46 65 8 52 90 63 85 98 83 106 102 107
310 315 304 297 307 183 214 134 138 142 148 150 155 154 155 168 175 183 109 255 190 173 91 44 22 16 29 31 17 188 147 102 168 13 333 126 173 183 181 130 132 142 176 88 189 125 112 101 96 103 101 110 110 104
312 316 316 301 263 132 126 127 129 134 138 146 152 162 173 167 179 170 212 226 316 141 132 71 76 51 42 62 63 54 87 106 123 248 224 254 135 34 43 132 122 111 148 126 84 115 120 129 127 122 117 113 110 112
308 353 340 264 122 123 123 124 128 131 133 142 139 135 126 168 190 185 239 238 263 311 113 120 89 60 76 91 106 119 136 163 186 182 197 158 102 84 105 119 109 79 119 190 336 158 55 137 143 136 129 126 128 119
311 335 273 161 131 126 126 127 125 122 124 123 142 164 169 173 167 163 94 219 224 219 140 122 109 99 91 92 88 91 81 339 356 38 51 75 72 143 156 94 103 91 78 84 93 93 107 131 140 137 133 137 122 119
332 315 276 128 128 128 126 124 121 118 108 110 119 133 148 151 157 216 183 52 313 306 100 120 131 133 354 138 134 131 95 11 355 118 37 118 154 249 159 144 156 102 101 105 111 109 126 145 143 139 139 126 123 118
316 276 144 129 128 125 124 125 127 120 122 139 145 143 143 130 124 166 57 311 342 225 210 124 94 150 215 189 123 281 126 153 349 67 210 193 116 278 100 140 118 117 122 136 148 128 147 135 139 136 135 137 129 123
271 154 132 129 124 125 125 124 124 124 121 114 111 126 134 236 143 89 312 301 253 281 147 154 156 136 180 76 109 149 323 95 14 208 148 245 141 204 139 156 139 148 155 145 152 128 138 142 135 141 140 142 130 128
165 133 129 125 125 124 121 124 125 122 125 141 184 153 125 69 305 235 190 93 350 336 303 149 94 129 145 163 51 110 321 171 171 163 85 296 79 125 140 149 138 166 147 159 141 147 145 144 146 149 148 141 134 132
122 127 122 118 120 122 122 119 120 125 33 204 85 73 89 125 226 77 129 172 162 165 171 107 135 129 160 160 152 42 169 103 245 122 228 183 180 136 116 140 142 140 152 158 158 145 146 144 141 143 136 119 122 125
137 134 131 124 119 118 118 121 128 219 41 59 94 111 154 140 150 124 140 144 239 129 171 152 144 120 106 99 90 226 182 204 296 199 240 234 98 120 128 124 129 127 130 141 140 142 138 134 126 113 109 103 90 95
125 123 117 116 117 114 104 98 93 103 153 169 157 79 156 69 158 199 162 198 130 136 206 122 106 122 148 62 35 96 79 137 254 198 218 60 128 116 123 121 121 117 97 121 124 113 112 106 102 107 96 101 107 107
123 119 115 110 110 108 102 91 49 270 262 90 119 103 289 156 141 24 32 72 78 150 130 97 52 64 82 55 293 147 77 237 248 236 100 140 138 126 125 126 124 118 104 105 103 99 99 96 93 97 106 111 118 117
120 121 122 113 113 107 104 78 308 264 35 47 26 66 68 73 63 70 97 109 16 123 119 133 147 101 96 112 146 82 174 228 239 35 61 124 121 114 118 117 111 114 115 113 113 110 107 109 111 110 110 121 113 121
118 117 107 112 111 100 48 277 144 55 42 60 37 109 133 113 106 94 82 69 7 164 149 116 163 102 163 141 172 212 270 16 70 65 97 120 120 115 118 115 116 122 127 125 119 120 121 123 130 129 114 117 124 122
111 113 123 110 117 145 288 262 56 45 45 39 62 315 51 66 61 66 82 118 233 168 79 114 98 82 172 217 169 109 25 67 110 101 100 125 133 125 120 120 124 123 126 129 128 129 129 122 117 130 132 143 141 136
105 116 99 59 304 145 44 51 72 78 61 41 69 49 45 49 72 53 4 351 319 71 21 46 335 63 218 204 98 86 107 87 84 112 110 112 113 120 124 130 132 133 130 131 132 135 128 149 150 144 141 147 136 139
110 102 64 12 346 329 84 58 18 78 61 76 78 82 81 86 77 82 43 314 333 33 98 152 146 191 64 56 88 98 130 143 130 111 99 110 126 132 131 134 133 133 137 145 151 151 160 166 148 141 148 151 146 156
89 54 10 329 294 79 73 67 22 65 80 73 65 48 40 48 83 309 276 358 16 343 207 178 42 46 41 41 33 106 134 116 128 131 127 126 129 137 144 152 149 146 150 155 152 151 160 148 131 144 155 171 154 155
103 16 328 331 43 39 48 83 70 86 90 66 115 127 90 82 48 23 42 6 324 276 63 69 97 91 50 8 68 115 128 147 159 160 160 157 163 151 163 150 140 161 157 161 153 163 161 142 142 140 138 111 112 96
75 289 2 22 41 52 55 20 81 83 64 100 143 44 109 122 128 154 80 203 246 23 37 34 91 145 153 138 122 105 127 87 91 93 114 132 161 155 166 150 169 166 164 160 163 155 156 146 129 137 125 116 110 105
288 4 33 36 71 49 50 300 87 8 103 122 165 130 126 123 52 221 240 234 139 51 32 56 85 63 102 116 112 118 143 153 133 113 134 153 149 149 151 158 176 165 162 165 154 160 144 134 138 126 126 128 115 118
58 44 32 35 35 82 272 25 129 102 106 187 136 130 94 100 31 237 262 97 84 147 136 138 237 152 148 159 161 138 163 100 98 127 138 129 136 146 151 161 167 167 164 155 150 142 140 135 131 134 143 142 144 156
31 30 354 69 320 135 118 119 334 91 124 170 113 98 110 168 243 231 252 106 90 86 121 180 222 291 329 75 82 93 314 152 145 151 139 146 140 143 150 159 161 166 161 152 150 142 139 142 139 149 160 158 154 147
66 26 359 60 311 290 133 138 156 191 108 132 110 56 137 245 238 238 72 66 61 145 150 178 195 191 167 66 138 144 152 141 124 141 157 143 156 161 162 161 164 162 165 154 144 148 147 150 155 151 158 145 130 133
118 107 124 12 336 50 43 349 71 123 173 198 141 169 199 244 206 90 115 43 87 78 101 70 37 43 117 109 92 79 74 48 57 110 89 89 104 152 163 166 168 147 142 145 144 145 150 158 147 145 126 125 132 135
27 181 171 167 189 269 284 201 179 199 211 162 131 192 221 291 39 74 79 108 119 125 116 76 54 55 90 104 102 100 95 94 87 92 88 73 61 59 74 104 126 129 129 144 142 142 146 143 137 135 138 137 122 123
189 126 162 192 241 187 241 233 226 140 5 120 188 199 169 58 51 99 127 137 136 149 142 143 116 106 102 102 123 137 154 159 153 157 157 144 138 103 92 114 117 112 113 111 113 123 131 129 129 123 117 115 108 110
158 159 208 172 221 236 79 5 48 27 359 25 323 244 166 101 85 68 140 156 177 183 153 146 147 169 160 163 154 157 183 203 211 202 183 165 152 132 135 117 113 108 105 102 98 96 95 99 103 108 113 116 119 125
104 178 213 211 218 76 57 12 312 260 303 323 30 286 3 46 125 58 3 8 59 134 163 177 175 205 179 178 170 172 170 157 92 66 95 112 131 133 132 129 126 116 113 119 120 117 122 122 127 135 145 143 135 138
188 197 208 210 161 109 167 241 261 255 194 235 208 177 238 233 233 107 34 330 265 219 223 243 198 189 187 150 139 127 156 144 155 129 132 132 129 131 129 124 122 126 133 137 131 141 143 138 144 137 130 142 142 127
210 189 194 154 190 212 162 227 213 223 191 234 210 34 7 335 351 88 100 19 10 11 13 59 55 102 119 108 110 102 125 124 132 138 128 126 127 125 122 125 129 134 133 132 138 137 137 132 131 138 135 128 131 134